TimeEDT,TemperatureF,Dew PointF,Humidity,Sea Level PressureIn,VisibilityMPH,Wind Direction,Wind SpeedMPH,Gust SpeedMPH,PrecipitationIn,Events,Conditions,WindDirDegrees,DateUTC
12:51 AM,42.1,27.0,55,29.78,10.0,NW,15.0,21.9,N/A,,Partly Cloudy,310,2013-03-16 04:51:00
1:51 AM,41.0,24.1,51,29.79,10.0,NW,12.7,-,N/A,,Partly Cloudy,320,2013-03-16 05:51:00
2:51 AM,39.9,23.0,51,29.80,10.0,NW,11.5,23.0,N/A,,Partly Cloudy,310,2013-03-16 06:51:00
3:51 AM,39.2,21.2,49,29.80,10.0,NW,10.4,-,N/A,,Partly Cloudy,310,2013-03-16 07:51:00
4:51 AM,37.9,21.0,51,29.81,10.0,NNW,11.5,-,N/A,,Partly Cloudy,330,2013-03-16 08:51:00
5:51 AM,37.0,19.9,50,29.83,10.0,NNW,10.4,-,N/A,,Scattered Clouds,330,2013-03-16 09:51:00
6:51 AM,37.0,19.0,48,29.85,10.0,NW,9.2,-,N/A,,Mostly Cloudy,320,2013-03-16 10:51:00
7:51 AM,36.0,19.0,50,29.85,10.0,North,9.2,-,N/A,,Mostly Cloudy,360,2013-03-16 11:51:00
8:51 AM,37.4,17.6,45,29.87,10.0,NNW,4.6,-,N/A,,Overcast,340,2013-03-16 12:51:00
9:51 AM,36.0,21.0,55,29.86,10.0,ENE,12.7,-,N/A,,Overcast,60,2013-03-16 13:51:00
10:51 AM,36.0,21.0,55,29.86,10.0,ENE,10.4,-,N/A,,Overcast,60,2013-03-16 14:51:00
11:51 AM,36.0,21.0,55,29.86,10.0,NE,5.8,-,N/A,,Overcast,50,2013-03-16 15:51:00
12:51 PM,36.0,21.9,57,29.83,10.0,NNE,3.5,-,N/A,,Overcast,20,2013-03-16 16:51:00
1:41 PM,35.6,24.8,65,29.83,2.0,Calm,Calm,-,0.00,Snow,Light Snow,0,2013-03-16 17:41:00
1:51 PM,35.1,26.1,70,29.83,2.0,Calm,Calm,-,0.00,Snow,Light Snow,0,2013-03-16 17:51:00
2:01 PM,33.8,26.6,75,29.83,1.0,Calm,Calm,-,0.00,Snow,Light Snow,0,2013-03-16 18:01:00
2:08 PM,33.8,28.4,81,29.83,0.5,Calm,Calm,-,0.01,Snow,Light Snow,0,2013-03-16 18:08:00
2:37 PM,33.8,28.4,81,29.83,0.5,North,4.6,-,0.02,Snow,Light Snow,350,2013-03-16 18:37:00
2:51 PM,33.1,28.9,85,29.82,0.5,NNE,4.6,-,0.03,Snow,Light Snow,30,2013-03-16 18:51:00
3:09 PM,33.8,30.2,87,29.81,0.8,NE,3.5,-,0.01,Snow,Light Snow,50,2013-03-16 19:09:00
3:13 PM,33.8,30.2,87,29.80,0.8,ENE,4.6,-,0.01,Snow,Light Snow,60,2013-03-16 19:13:00
3:51 PM,33.1,30.0,89,29.80,1.2,ENE,6.9,-,0.03,Snow,Light Snow,60,2013-03-16 19:51:00
4:51 PM,33.1,30.0,89,29.80,1.5,ENE,8.1,-,0.01,Snow,Light Snow,60,2013-03-16 20:51:00
5:35 PM,33.8,30.2,87,29.80,4.0,ENE,6.9,-,0.00,Snow,Light Snow,60,2013-03-16 21:35:00
5:51 PM,33.8,30.2,87,29.80,4.0,NE,8.1,-,N/A,Snow,Light Snow,50,2013-03-16 21:51:00
5:53 PM,33.8,28.4,81,29.80,1.5,NE,6.9,-,0.00,Snow,Light Snow,50,2013-03-16 21:53:00
6:08 PM,33.8,28.4,81,29.80,5.0,NE,8.1,-,0.00,Snow,Light Snow,50,2013-03-16 22:08:00
6:25 PM,33.8,28.4,81,29.80,6.0,NE,6.9,-,0.00,,Overcast,50,2013-03-16 22:25:00
6:51 PM,33.1,28.9,85,29.80,6.0,NE,6.9,-,0.00,Snow,Light Snow,50,2013-03-16 22:51:00
6:53 PM,33.8,28.4,81,29.80,2.0,NE,6.9,-,0.00,Snow,Light Snow,40,2013-03-16 22:53:00
7:31 PM,33.8,30.2,87,29.82,5.0,NE,6.9,-,0.01,Snow,Light Snow,40,2013-03-16 23:31:00
7:51 PM,33.1,30.0,89,29.83,7.0,ENE,8.1,-,0.01,Snow,Light Snow,70,2013-03-16 23:51:00
8:47 PM,33.8,30.2,87,29.86,7.0,NE,6.9,-,0.00,Snow,Light Snow,50,2013-03-17 00:47:00
8:51 PM,34.0,30.0,85,29.86,7.0,NE,5.8,-,0.00,Snow,Light Snow,40,2013-03-17 00:51:00
9:15 PM,33.8,28.4,81,29.87,7.0,NE,4.6,-,0.00,Snow,Light Snow,50,2013-03-17 01:15:00
9:47 PM,33.8,28.4,81,29.88,9.0,North,5.8,-,0.00,,Overcast,360,2013-03-17 01:47:00
9:51 PM,34.0,28.0,79,29.88,9.0,North,5.8,-,0.00,,Overcast,360,2013-03-17 01:51:00
10:51 PM,35.1,28.0,76,29.90,10.0,NW,8.1,-,N/A,,Overcast,320,2013-03-17 02:51:00
11:51 PM,35.1,27.0,72,29.91,10.0,NW,9.2,-,N/A,,Overcast,320,2013-03-17 03:51:00